Weather History for Monett, MO

Change the Weather History Date:

Tuesday, January 8, 2013

  Actual Average (KJLN) Record (KJLN)
Temperature  
Mean Temperature 42 °F 35 °F  
Max Temperature 55 °F 44 °F 69 °F (2006)
Min Temperature 30 °F 25 °F -8 °F (1979)
Degree Days  
Heating Degree Days 22 30  
Month to date heating degree days 240  
Since 1 July heating degree days 1857  
Cooling Degree Days 0 0  
Month to date cooling degree days 0  
Year to date cooling degree days 0  
Moisture  
Dew Point 33 °F    
Average Humidity 71    
Maximum Humidity 100    
Minimum Humidity 50    
Precipitation  
Precipitation 0.32 in 0.07 in 0.80 in (1998)
Month to date precipitation 0.57  
Year to date precipitation 0.57  
Sea Level Pressure  
Sea Level Pressure 30.10 in    
Wind  
Wind Speed 7 mph (South)    
Max Wind Speed 14 mph    
Max Gust Speed 18 mph    
Visibility 8 miles    
Events Rain    
T = Trace of Precipitation, MM = Missing Value Source: NWS Daily Summary

Daily Weather History Graph

Daily Weather History Graph

Search for Another Location

Airport:

Trip Planner

Search our weather history database for the weather conditions in past years. The results will help you decide how hot, cold, wet, or windy it might be!

Date:

Astronomy

Jan. 08, 2013 Rise Set
Actual Time 7:29 AM CST 5:16 PM CST
Civil Twilight 7:00 AM CST 5:45 PM CST
Nautical Twilight 6:28 AM CST 6:17 PM CST
Astronomical Twilight 5:57 AM CST 6:48 PM CST
Moon 4:03 AM CST (1/8) 2:19 PM CST (1/8)
Length of Visible Light 10h 44m
Length of Day
9h 47m
Waning Crescent, 13% of the Moon is Illuminated
Jan 8
Waning Crescent
Jan 11
New
Jan 18
First Quarter
Jan 26
Full
Feb 3
Last Quarter

Hourly Weather History & Observations

Time (CST) Temp. Windchill Dew Point Humidity Pressure Visibility Wind Dir Wind Speed Gust Speed Precip Events Conditions
12:35 AM 33.8 °F 27.0 °F 23.0 °F 65% 30.09 in 10.0 mi SSE 8.1 mph - N/A   Clear
12:55 AM 33.8 °F 25.8 °F 24.8 °F 70% 30.09 in 10.0 mi SSE 10.4 mph - N/A   Clear
1:15 AM 33.8 °F 27.7 °F 24.8 °F 70% 30.09 in 10.0 mi SSE 6.9 mph - N/A   Clear
1:35 AM 33.8 °F 28.6 °F 24.8 °F 70% 30.09 in 10.0 mi SSE 5.8 mph - N/A   Clear
1:55 AM 33.8 °F 27.7 °F 24.8 °F 70% 30.09 in 10.0 mi SSE 6.9 mph - N/A   Clear
2:15 AM 33.8 °F 28.6 °F 24.8 °F 70% 30.09 in 10.0 mi SSE 5.8 mph - N/A   Clear
2:35 AM 33.8 °F 27.0 °F 24.8 °F 70% 30.10 in 10.0 mi South 8.1 mph - N/A   Clear
2:55 AM 33.8 °F 28.6 °F 24.8 °F 70% 30.11 in 10.0 mi South 5.8 mph - N/A   Clear
3:15 AM 33.8 °F 30.8 °F 24.8 °F 70% 30.11 in 10.0 mi SSW 3.5 mph - N/A   Clear
3:35 AM 33.8 °F 30.8 °F 23.0 °F 65% 30.10 in 10.0 mi South 3.5 mph - N/A   Clear
3:55 AM 32.0 °F 26.4 °F 23.0 °F 69% 30.10 in 10.0 mi South 5.8 mph - N/A   Clear
4:15 AM 32.0 °F 25.6 °F 23.0 °F 69% 30.09 in 10.0 mi South 6.9 mph - N/A   Clear
4:35 AM 32.0 °F 25.6 °F 23.0 °F 69% 30.09 in 10.0 mi SSE 6.9 mph - N/A   Clear
4:55 AM 32.0 °F 26.4 °F 23.0 °F 69% 30.08 in 10.0 mi SSE 5.8 mph - N/A   Clear
5:15 AM 30.2 °F 23.4 °F 23.0 °F 75% 30.08 in 10.0 mi SSE 6.9 mph - N/A   Clear
5:35 AM 32.0 °F 25.6 °F 23.0 °F 69% 30.09 in 10.0 mi SSE 6.9 mph - N/A   Clear
5:55 AM 32.0 °F 25.6 °F 23.0 °F 69% 30.09 in 10.0 mi SE 6.9 mph - N/A   Clear
6:15 AM 32.0 °F 26.4 °F 23.0 °F 69% 30.10 in 10.0 mi SSE 5.8 mph - N/A   Clear
6:35 AM 32.0 °F 27.5 °F 23.0 °F 69% 30.10 in 10.0 mi SSE 4.6 mph - N/A   Clear
6:55 AM 32.0 °F 27.5 °F 23.0 °F 69% 30.10 in 10.0 mi SSE 4.6 mph - N/A   Clear
7:15 AM 32.0 °F 26.4 °F 24.8 °F 75% 30.10 in 10.0 mi SE 5.8 mph - N/A   Clear
7:35 AM 32.0 °F 25.6 °F 24.8 °F 75% 30.11 in 10.0 mi SE 6.9 mph - N/A   Scattered Clouds
7:55 AM 33.8 °F 27.7 °F 26.6 °F 75% 30.11 in 10.0 mi SSE 6.9 mph - N/A   Mostly Cloudy
8:15 AM 35.6 °F 30.7 °F 26.6 °F 70% 30.11 in 10.0 mi SSE 5.8 mph - N/A   Scattered Clouds
8:35 AM 35.6 °F 28.6 °F 26.6 °F 70% 30.11 in 10.0 mi SSE 9.2 mph - N/A   Mostly Cloudy
8:55 AM 37.4 °F 30.8 °F 26.6 °F 65% 30.12 in 10.0 mi SSE 9.2 mph - N/A   Mostly Cloudy
9:15 AM 39.2 °F 33.6 °F 26.6 °F 61% 30.12 in 10.0 mi SSE 8.1 mph - N/A   Mostly Cloudy
9:35 AM 41.0 °F 35.2 °F 28.4 °F 61% 30.12 in 10.0 mi South 9.2 mph - N/A   Scattered Clouds
9:55 AM 42.8 °F 37.0 °F 26.6 °F 53% 30.12 in 10.0 mi South 10.4 mph - N/A   Scattered Clouds
10:15 AM 44.6 °F 39.2 °F 28.4 °F 53% 30.12 in 10.0 mi South 10.4 mph - N/A   Clear
10:35 AM 46.4 °F 41.9 °F 28.4 °F 50% 30.12 in 10.0 mi South 9.2 mph - N/A   Clear
10:55 AM 46.4 °F 42.9 °F 32.0 °F 57% 30.11 in 10.0 mi South 6.9 mph - N/A   Scattered Clouds
11:15 AM 50.0 °F - 33.8 °F 54% 30.10 in 10.0 mi South 10.4 mph - N/A   Mostly Cloudy
11:35 AM 48.2 °F - 33.8 °F 58% 30.08 in 10.0 mi SSW 10.4 mph - N/A   Overcast
11:55 AM 50.0 °F - 33.8 °F 54% 30.07 in 10.0 mi South 11.5 mph - N/A   Mostly Cloudy
12:35 PM 51.8 °F - 35.6 °F 54% 30.06 in 10.0 mi South 9.2 mph - N/A   Mostly Cloudy
12:55 PM 51.8 °F - 37.4 °F 58% 30.04 in 10.0 mi South 11.5 mph - N/A   Overcast
1:15 PM 53.6 °F - 37.4 °F 54% 30.04 in 10.0 mi South 10.4 mph - N/A   Mostly Cloudy
1:55 PM 53.6 °F - 37.4 °F 54% 30.04 in 10.0 mi South 10.4 mph 16.1 mph N/A   Clear
2:15 PM 53.6 °F - 37.4 °F 54% 30.04 in 10.0 mi South 12.7 mph - N/A   Mostly Cloudy
2:35 PM 55.4 °F - 37.4 °F 51% 30.04 in 10.0 mi SSW 13.8 mph 18.4 mph N/A   Scattered Clouds
2:55 PM 53.6 °F - 37.4 °F 54% 30.05 in 10.0 mi South 10.4 mph - N/A   Scattered Clouds
3:15 PM 53.6 °F - 37.4 °F 54% 30.05 in 10.0 mi SSW 11.5 mph - N/A   Overcast
3:35 PM 53.6 °F - 37.4 °F 54% 30.05 in 10.0 mi SSW 9.2 mph - N/A   Overcast
3:55 PM 53.6 °F - 37.4 °F 54% 30.05 in 10.0 mi SSW 6.9 mph - N/A   Overcast
4:15 PM 53.6 °F - 37.4 °F 54% 30.06 in 10.0 mi SSW 5.8 mph - N/A   Overcast
4:35 PM 53.6 °F - 37.4 °F 54% 30.06 in 10.0 mi South 3.5 mph - N/A   Overcast
4:55 PM 53.6 °F - 37.4 °F 54% 30.06 in 10.0 mi SSW 6.9 mph - N/A   Overcast
5:15 PM 53.6 °F - 39.2 °F 58% 30.07 in 10.0 mi SSW 8.1 mph - N/A   Overcast
5:35 PM 51.8 °F - 39.2 °F 62% 30.08 in 10.0 mi SSW 6.9 mph - N/A   Overcast
5:55 PM 51.8 °F - 39.2 °F 62% 30.09 in 10.0 mi SW 5.8 mph - N/A   Overcast
6:15 PM 50.0 °F - 41.0 °F 71% 30.09 in 7.0 mi WSW 4.6 mph - 0.01 in Rain Rain
6:35 PM 48.2 °F - 42.8 °F 82% 30.10 in 10.0 mi SW 3.5 mph - 0.01 in Rain Light Rain
6:55 PM 46.4 °F 43.5 °F 44.6 °F 93% 30.12 in 10.0 mi SSW 5.8 mph - 0.02 in Rain Light Rain
7:35 PM 44.6 °F 40.7 °F 44.6 °F 100% 30.12 in 5.0 mi South 6.9 mph - 0.08 in Rain Heavy Rain
7:55 PM 44.6 °F 40.7 °F 44.6 °F 100% 30.12 in 5.0 mi South 6.9 mph - 0.10 in Rain Rain
8:15 PM 44.6 °F 42.2 °F 44.6 °F 100% 30.12 in 3.0 mi South 4.6 mph - 0.03 in Rain Rain
8:35 PM 44.6 °F 41.4 °F 44.6 °F 100% 30.14 in 4.0 mi South 5.8 mph - 0.03 in   Drizzle
8:55 PM 44.6 °F 43.1 °F 44.6 °F 100% 30.14 in 3.0 mi SSE 3.5 mph - 0.04 in   Drizzle
9:15 PM 44.6 °F - 44.6 °F 100% 30.15 in 4.0 mi Calm Calm - N/A   Drizzle
9:35 PM 44.6 °F 43.1 °F 44.6 °F 100% 30.15 in 1.5 mi SE 3.5 mph - 0.05 in Rain Rain
9:55 PM 44.6 °F - 44.6 °F 100% 30.15 in 1.5 mi Calm Calm - 0.09 in   Heavy Drizzle
10:15 PM 44.6 °F - 44.6 °F 100% 30.15 in 1.0 mi Calm Calm - 0.03 in Rain Rain
10:35 PM 44.6 °F 43.1 °F 44.6 °F 100% 30.16 in 1.2 mi SSE 3.5 mph - 0.04 in   Heavy Drizzle
10:55 PM 44.6 °F 42.2 °F 44.6 °F 100% 30.18 in 1.2 mi SSE 4.6 mph - 0.05 in   Heavy Drizzle
11:15 PM 44.6 °F 42.2 °F 44.6 °F 100% 30.18 in 1.2 mi SSE 4.6 mph - 0.01 in   Heavy Drizzle
11:35 PM 44.6 °F 41.4 °F 44.6 °F 100% 30.19 in 1.2 mi SSE 5.8 mph - 0.02 in   Drizzle
11:55 PM 44.6 °F 43.1 °F 44.6 °F 100% 30.20 in 1.8 mi SSE 3.5 mph - 0.02 in   Drizzle